Retour au catalogue

FENGYUN 1C DEB

ActifSSO
NORAD 31294·DEBRIS·🇨🇳 China

Lancé May 10, 1999 depuis Taiyuan Satellite Launch Center

Loading…

Prochains Passages (prochaines 24 heures)

TLE

FraisSource: Space-Track

Époque: Sep 14, 2026, 04:32 UTC

1 31294U 99025BPC 26257.18949800  .00000442  00000-0  23558-3 0  9991
2 31294  98.5608 246.6988 0098020 269.2290  89.7653 14.15741002  7504

Suivez FENGYUN 1C DEB en temps réel avec AllMySat

Download on the App Store